Regional Weather Roundup
Issued by NWS

Home | Current Version | Previous Version | Graphics & Text | Print | Product List | Glossary On
Versions: 1 2 3 4 5 6 7 8 9 10 11 12 13 14 15 16 17 18 19 20 21 22 23 24 25 26 27 28 29 30 31 32 33 34 35 36 37 38 39 40 41 42 43 44 45 46 47 48 49 50
000
ASUS43 KDMX 201106
RWRIA

WEATHER ROUNDUP FOR IOWA
NATIONAL WEATHER SERVICE DES MOINES IA
600 AM CDT FRI APR 20 2018

NOTE: "FAIR" INDICATES FEW OR NO CLOUDS BELOW 12,000 FEET WITH NO
SIGNIFICANT WEATHER AND/OR OBSTRUCTIONS TO VISIBILITY.

* - THESE STATIONS ARE NOT NWS STATIONS...THUS NOT UNDER NWS
QUALITY CONTROL.  THEY ALSO DO NOT REPORT WEATHER SUCH
AS PRECIPITATION OR FOG.

IAZ001>003-012>014-020>022-031>034-043>046-201200-
   NORTHWEST IOWA

CITY           SKY/WX    TMP DP  RH WIND       PRES   REMARKS
CARROLL *      CLOUDY    28  28 100 CALM      30.44F
DENISON *      CLOUDY    34  27  75 E5        30.44S WCI  30
LE MARS *      CLOUDY    32  25  74 CALM      30.42S
ORANGE CITY *  CLOUDY    30  25  80 E6        30.42S WCI  24
SHELDON *      CLOUDY    30  25  80 E6        30.42S WCI  24
SIOUX CITY     CLOUDY    31  25  78 E8        30.41F WCI  23
SPENCER        CLOUDY    23  17  78 E5        30.45S WCI  17
STORM LAKE *   PTCLDY    30  23  74 SE10      30.43F WCI  21
$$

IAZ055>058-069>071-079>083-090>094-201200-
   SOUTHWEST IOWA

CITY           SKY/WX    TMP DP  RH WIND       PRES   REMARKS
ATLANTIC *     CLOUDY    30  27  86 CALM      30.44S
AUDUBON *      CLOUDY    30  25  80 CALM      30.44F
CLARINDA *     CLOUDY    30  25  80 CALM      30.46S
COUNCIL BLFS * CLOUDY    34  28  80 SE8       30.41S WCI  27
CRESTON *      CLOUDY    30  25  80 E9        30.45S WCI  22
HARLAN  *      CLOUDY    34  27  75 SE6       30.46S WCI  29
LAMONI         CLOUDY    31  24  75 NE6       30.44S WCI  25
RED OAK *      CLOUDY    36  27  69 VRB5      30.43S WCI  32
SHENANDOAH *   CLOUDY    32  27  80 NE3       30.43S
$$

IAZ047>049-059>061-072>074-084-201200-
   CENTRAL IOWA

CITY           SKY/WX    TMP DP  RH WIND       PRES   REMARKS
AMES           CLOUDY    29  25  85 CALM      30.48S
ANKENY *       CLOUDY    30  25  80 CALM      30.49S
BOONE *        CLOUDY    30  25  80 E6        30.46S WCI  24
CHARITON *     CLOUDY    32  25  74 E8        30.46S WCI  25
DES MOINES     CLOUDY    34  23  64 E5        30.48S WCI  30
GRINNELL*      CLOUDY    30  24  77 E6        30.49R WCI  24
KNOXVILLE *    CLOUDY    34  23  64 E7        30.45F WCI  28
MARSHALLTOWN   CLOUDY    27  24  89 CALM      30.48R
NEWTON *       CLOUDY    30  23  74 NE7       30.48S WCI  23
PELLA *        CLOUDY    33  24  69 E5        30.49S WCI  28
PERRY *        FAIR      28  26  94 E5        30.47S WCI  22
$$

IAZ004>006-015-016-023>025-035-036-201200-
   NORTH CENTRAL IOWA

CITY           SKY/WX    TMP DP  RH WIND       PRES   REMARKS
ALGONA *       FOG       21  21 100 CALM      30.46S VSB 1/4
CLARION *      PTCLDY    25  21  86 E5        30.47S WCI  19
ESTHERVILLE    FOG       16  14  92 S3        30.46R VSB 1
FORT DODGE *   CLOUDY    26  24  92 E3        30.47S
MASON CITY     CLOUDY    19  15  84 CALM      30.49R
FOREST CITY *  FAIR     N/A N/A N/A CALM      30.48R HAZE
WEBSTER CITY * CLOUDY    28  25  86 SE6       30.45S WCI  22
IOWA FALLS *   FAIR      29  26  87 CALM      30.49R
$$

IAZ007>011-017>019-026>030-037>042-050>054-066-201200-
   NORTHEAST IOWA

CITY           SKY/WX    TMP DP  RH WIND       PRES   REMARKS
CEDAR RAPIDS   FAIR      27  23  85 N5        30.48S WCI  22
CHARLES CITY * FAIR      23  23 100 NE5       30.49R WCI  17
CLINTON *      FAIR      24  22  91 CALM      30.51R
DECORAH *      FAIR      25  23  93 CALM      30.48S
DUBUQUE        FAIR      30  21  69 CALM      30.49R
MONTICELLO *   FAIR      25  23  93 CALM      30.50R
OELWEIN *      FAIR      28  28 100 NE7       30.49R WCI  21
WATERLOO       FAIR      22  21  96 CALM      30.49S
$$

IAZ064-065-067-068-078-201200-
   EAST CENTRAL IOWA

CITY           SKY/WX    TMP DP  RH WIND       PRES   REMARKS
DAVENPORT      FAIR      26  23  88 CALM      30.52R
IOWA CITY      FAIR      28  23  81 CALM      30.51S
MT. PLEASANT * CLOUDY    28  23  80 NE5       30.49S WCI  23
MUSCATINE *    FAIR      30  25  80 CALM      30.51S
QUAD CITIES    FAIR      26  23  88 CALM      30.50R
$$

IAZ062-063-075>077-085>089-095>099-201200-
   SOUTHEAST IOWA

CITY           SKY/WX    TMP DP  RH WIND       PRES   REMARKS
BURLINGTON     CLOUDY    33  24  69 NE6       30.49R WCI  28
FAIRFIELD *    CLOUDY    27  21  80 NE6       30.48S WCI  20
FORT MADISON * CLOUDY    34  27  75 CALM      30.50R
KEOKUK *       CLOUDY    32  27  80 NE5       30.48S WCI  27
OSKALOOSA *    FAIR      28  24  82 E7        30.48S WCI  21
CENTERVILLE *    N/A     32  27  80 CALM      30.48S
OTTUMWA        CLOUDY    32  24  72 E8        30.48S WCI  25
WASHINGTON *   CLOUDY    28  27  93 NE6       30.50S WCI  22
$$

ABBREVIATIONS USED IN REMARKS
   TC - TEMPERATURES IN CELSIUS
  WCI - WIND CHILL INDEX
   HX - HEAT INDEX
  VSB - VISIBILITY
$$





USA.gov is the U.S. government's official web portal to all federal, state and local government web resources and services.